Falfurrias, TX

11:53 PM CST on December 09, 2019 (GMT -0600)
Falfurrias

Weather History for KBKS - October, 2019

Change the Weather History Date:

Saturday, October 12, 2019

  Actual Average (KNQI) Record (KNQI)
Temperature  
Mean Temperature 66 °F -  
Max Temperature 75 °F 81 °F 97 °F (2015)
Min Temperature 58 °F 63 °F 59 °F (1996)
Cooling Degree Days 2    
Growing Degree Days 16 (Base 50)    
Moisture  
Dew Point 37 °F    
Average Humidity 35    
Maximum Humidity 55    
Minimum Humidity 21    
Precipitation  
Precipitation 0.00 in - - ()
Sea Level Pressure  
Sea Level Pressure 30.14 in    
Wind  
Wind Speed 5 mph ()    
Max Wind Speed 14 mph    
Max Gust Speed 17 mph    
Visibility 10.0 miles    
Events      
Averages and records for this station are not official NWS values.
T = Trace of Precipitation, MM = Missing Value Source: Averaged Metar Reports

Daily Weather History Graph

Daily Weather History Graph

Search for Another Location

Airport or City:

Astronomy

Oct. 12, 2019 Rise Set
Actual Time 7:30 AM CDT 7:06 PM CDT
Civil Twilight 7:07 AM CDT 7:30 PM CDT
Nautical Twilight 6:40 AM CDT 7:57 PM CDT
Astronomical Twilight 6:13 AM CDT 8:24 PM CDT
Moon 6:52 PM CDT (10/12) 6:22 AM CDT (10/12)
Length of Visible Light 12h 23m
Length of Day
11h 36m
Waxing Gibbous, 99% of the Moon is Illuminated
Oct 12
Waxing Gibbous
Oct 13
Full
Oct 21
Last Quarter
Oct 27
New
Nov 4
First Quarter

Hourly Weather History & Observations

Time (CDT) Temp. Dew Point Humidity Pressure Visibility Wind Dir Wind Speed Gust Speed Precip Events Conditions
12:15 AM 58.5 °F 42.1 °F 55% 30.22 in 10.0 mi NNW 4.6 mph - N/A   Overcast
12:35 AM 58.6 °F 41.9 °F 54% 30.22 in 10.0 mi NNW 5.8 mph - N/A   Overcast
12:55 AM 59.2 °F 41.7 °F 52% 30.22 in 10.0 mi NNW 5.8 mph - N/A   Overcast
1:15 AM 59.5 °F 41.7 °F 52% 30.22 in 10.0 mi NNW 4.6 mph - N/A   Overcast
1:35 AM 59.9 °F 41.4 °F 50% 30.21 in 10.0 mi NNW 5.8 mph - N/A   Overcast
1:55 AM 60.4 °F 40.1 °F 47% 30.20 in 10.0 mi NNW 6.9 mph - N/A   Overcast
2:15 AM 60.6 °F 40.1 °F 47% 30.20 in 10.0 mi NNW 9.2 mph - N/A   Overcast
2:35 AM 60.8 °F 38.7 °F 44% 30.19 in 10.0 mi NNW 9.2 mph - N/A   Overcast
2:55 AM 61.2 °F 37.4 °F 41% 30.17 in 10.0 mi NNW 10.4 mph 16.1 mph N/A   Overcast
3:15 AM 61.7 °F 36.7 °F 39% 30.18 in 10.0 mi NNW 5.8 mph - N/A   Overcast
3:35 AM 61.7 °F 36.9 °F 40% 30.18 in 10.0 mi NNW 5.8 mph - N/A   Overcast
3:55 AM 61.7 °F 37.0 °F 40% 30.17 in 10.0 mi NNW 5.8 mph - N/A   Overcast
4:15 AM 61.7 °F 37.2 °F 40% 30.17 in 10.0 mi NNW 5.8 mph - N/A   Overcast
4:35 AM 61.7 °F 37.2 °F 40% 30.18 in 10.0 mi NW 5.8 mph - N/A   Overcast
4:55 AM 61.9 °F 36.9 °F 39% 30.18 in 10.0 mi NW 4.6 mph - N/A   Overcast
5:15 AM 61.9 °F 37.2 °F 40% 30.18 in 10.0 mi NNW 6.9 mph - N/A   Overcast
5:35 AM 62.1 °F 36.7 °F 39% 30.18 in 10.0 mi NNW 4.6 mph - N/A   Overcast
5:55 AM 61.9 °F 39.7 °F 44% 30.19 in 10.0 mi NW 3.5 mph - N/A   Overcast
6:35 AM 61.7 °F 39.4 °F 44% 30.19 in 10.0 mi NW 4.6 mph - N/A   Overcast
6:55 AM 61.9 °F 39.4 °F 43% 30.21 in 10.0 mi NNW 3.5 mph - N/A   Overcast
7:15 AM 62.1 °F 38.5 °F 42% 30.20 in 10.0 mi NNW 4.6 mph - N/A   Overcast
7:35 AM 62.6 °F 35.8 °F 37% 30.21 in 10.0 mi NNW 5.8 mph - N/A   Overcast
7:55 AM 62.6 °F 35.8 °F 37% 30.21 in 10.0 mi NNW 4.6 mph - N/A   Overcast
8:15 AM 63.0 °F 35.8 °F 36% 30.21 in 10.0 mi North 4.6 mph - N/A   Overcast
8:35 AM 63.5 °F 35.4 °F 35% 30.21 in 10.0 mi North 4.6 mph - N/A   Overcast
8:55 AM 63.7 °F 33.8 °F 33% 30.21 in 10.0 mi North 5.8 mph - N/A   Overcast
9:35 AM 64.4 °F 32.0 °F 30% 30.22 in 10.0 mi North 9.2 mph - N/A   Overcast
9:55 AM 64.9 °F 32.9 °F 30% 30.22 in 10.0 mi NNW 9.2 mph - N/A   Overcast
10:15 AM 65.5 °F 31.6 °F 28% 30.23 in 10.0 mi North 8.1 mph - N/A   Overcast
10:35 AM 65.7 °F 30.7 °F 27% 30.23 in 10.0 mi North 13.8 mph 17.3 mph N/A   Overcast
10:55 AM 66.6 °F 31.8 °F 27% 30.22 in 10.0 mi North 10.4 mph - N/A   Overcast
11:15 AM 66.9 °F 31.1 °F 26% 30.22 in 10.0 mi NNW 11.5 mph - N/A   Overcast
11:35 AM 67.3 °F 31.1 °F 26% 30.21 in 10.0 mi NW 11.5 mph - N/A   Overcast
11:55 AM 67.5 °F 31.3 °F 26% 30.21 in 10.0 mi North 10.4 mph 16.1 mph N/A   Overcast
12:15 PM 68.2 °F 30.9 °F 25% 30.21 in 10.0 mi North 9.2 mph - N/A   Overcast
12:35 PM 68.9 °F 30.2 °F 24% 30.20 in 10.0 mi NNW 6.9 mph - N/A   Overcast
12:55 PM 69.4 °F 30.4 °F 23% 30.19 in 10.0 mi NNW 6.9 mph - N/A   Overcast
1:15 PM 69.6 °F 30.7 °F 24% 30.18 in 10.0 mi North 4.6 mph - N/A   Overcast
1:35 PM 71.4 °F 31.8 °F 23% 30.16 in 10.0 mi North 9.2 mph - N/A   Overcast
1:55 PM 70.9 °F 30.7 °F 23% 30.15 in 10.0 mi NNE 4.6 mph - N/A   Overcast
2:15 PM 71.2 °F 30.7 °F 22% 30.14 in 10.0 mi NW 9.2 mph - N/A   Overcast
2:35 PM 72.5 °F 31.6 °F 22% 30.13 in 10.0 mi NNE 9.2 mph - N/A   Overcast
2:55 PM 73.0 °F 31.6 °F 22% 30.11 in 10.0 mi NNE 5.8 mph - N/A   Overcast
3:15 PM 73.4 °F 32.0 °F 22% 30.10 in 10.0 mi NNE 5.8 mph - N/A   Overcast
3:35 PM 73.9 °F 32.2 °F 22% 30.09 in 10.0 mi NNE 6.9 mph - N/A   Overcast
3:55 PM 74.5 °F 32.9 °F 22% 30.08 in 10.0 mi North 5.8 mph - N/A   Overcast
4:15 PM 74.1 °F 32.5 °F 22% 30.07 in 10.0 mi NNW 4.6 mph - N/A   Overcast
4:35 PM 75.2 °F 33.3 °F 22% 30.06 in 10.0 mi North 5.8 mph - N/A   Mostly Cloudy
4:55 PM 75.6 °F 33.3 °F 21% 30.06 in 10.0 mi NE 8.1 mph - N/A   Mostly Cloudy
5:15 PM 73.9 °F 33.6 °F 23% 30.06 in 10.0 mi NNE 8.1 mph - N/A   Scattered Clouds
5:35 PM 73.9 °F 35.1 °F 24% 30.05 in 10.0 mi NNE 6.9 mph - N/A   Clear
5:55 PM 74.7 °F 34.3 °F 23% 30.04 in 10.0 mi NNE 5.8 mph - N/A   Clear
6:15 PM 72.9 °F 34.9 °F 25% 30.05 in 10.0 mi Calm Calm - N/A   Clear
6:35 PM 72.3 °F 35.1 °F 26% 30.05 in 10.0 mi NNE 4.6 mph - N/A   Clear
6:55 PM 71.6 °F 36.5 °F 28% 30.06 in 10.0 mi Calm Calm - N/A   Clear
7:15 PM 70.9 °F 37.9 °F 30% 30.05 in 10.0 mi Calm Calm - N/A   Scattered Clouds
7:35 PM 69.8 °F 39.2 °F 33% 30.05 in 10.0 mi Calm Calm - N/A   Scattered Clouds
7:55 PM 68.9 °F 40.5 °F 35% 30.05 in 10.0 mi Calm Calm - N/A   Clear
8:15 PM 68.5 °F 43.0 °F 40% 30.05 in 10.0 mi Calm Calm - N/A   Clear
8:35 PM 68.0 °F 43.0 °F 40% 30.06 in 10.0 mi Calm Calm - N/A   Scattered Clouds
8:55 PM 66.7 °F 44.4 °F 44% 30.05 in 10.0 mi Calm Calm - N/A   Scattered Clouds
9:15 PM 66.7 °F 45.3 °F 46% 30.05 in 10.0 mi Calm Calm - N/A   Mostly Cloudy
9:35 PM 68.5 °F 43.5 °F 40% 30.06 in 10.0 mi Calm Calm - N/A   Overcast
9:55 PM 68.7 °F 44.1 °F 41% 30.06 in 10.0 mi Calm Calm - N/A   Overcast
10:15 PM 68.7 °F 47.3 °F 46% 30.06 in 10.0 mi East 3.5 mph - N/A   Overcast
10:35 PM 68.5 °F 46.0 °F 44% 30.06 in 10.0 mi Calm Calm - N/A   Overcast
10:55 PM 69.1 °F 46.4 °F 44% 30.06 in 10.0 mi Calm Calm - N/A   Overcast
11:15 PM 69.3 °F 46.2 °F 44% 30.05 in 10.0 mi Calm Calm - N/A   Overcast
11:35 PM 69.3 °F 46.4 °F 44% 30.06 in 10.0 mi Calm Calm - N/A   Overcast
11:55 PM 69.3 °F 47.5 °F 46% 30.06 in 10.0 mi West 3.5 mph - N/A   Overcast